Regional Weather Roundup
Issued by NWS State College, PA

Current Version | Previous Version | Text Only | Print | Product List | Glossary On
Versions: 1 2 3 4 5 6 7 8 9 10 11 12 13 14 15 16 17 18 19 20 21 22 23 24 25 26 27 28 29 30 31 32 33 34 35 36 37 38 39 40 41 42 43 44 45 46 47 48 49 50
000
ASUS41 KCTP 041910
RWRCTP

REGIONAL WEATHER ROUNDUP
NATIONAL WEATHER SERVICE STATE COLLEGE PA
300 PM EDT WED MAY 04 2016

Note: "fair" indicates few or no clouds below 12,000 feet with no
significant weather and/or obstructions to visibility.

* = STATION THAT DOES NOT REPORT PRECIPITATION /E.G. RAIN...SNOW...ETC/
    THUNDER OR FOG.

PAZ002>004-007>009-013>016-020>023-029>032-042000-
WESTERN PENNSYLVANIA

CITY           SKY/WX    TMP DP  RH WIND       PRES   REMARKS
ERIE           MOSUNNY   60  44  55 NE13      29.65F
MEADVILLE      MOSUNNY   61  32  33 CALM      29.63F
FRANKLIN*      PTSUNNY   63  34  34 E10       29.65F
NEW CASTLE     CLOUDY    55  43  63 S7        29.66S
BEAVER COUNTY  PTSUNNY   57  43  58 NW5       29.65F
BUTLER*        CLOUDY    57  41  54 W3        29.67F
PITTSBURGH INT PTSUNNY   62  41  46 VRB3      29.62F
PITTSBURGH     MOSUNNY   62  41  46 VRB5      29.62F
INDIANA*       CLOUDY    57  46  67 VRB5      29.69F
LATROBE        PTSUNNY   59  48  67 VRB3      29.65F
WASHINGTON CO* CLOUDY    59  43  55 NW7       29.64S
$$

PAZ004>006-010>012-017>019-024>028-033>037-041-042-045-046-049>053-042000-
CENTRAL PENNSYLVANIA

CITY           SKY/WX    TMP DP  RH WIND       PRES   REMARKS
BRADFORD       CLOUDY    57  36  45 SE7       29.65F
DUBOIS         CLOUDY    55  42  61 SE8       29.65F
CLEARFIELD     PTSUNNY   57  41  55 SW8       29.66F
JOHNSTOWN      LGT RAIN  51  41  68 CALM      29.65F
ALTOONA        RAIN      52  48  86 NE6       29.67S FOG
STATE COLLEGE  CLOUDY    55  50  82 CALM      29.67F
WILLIAMSPORT   CLOUDY    59  49  69 SE8       29.68F
SELINSGROVE    CLOUDY    57  50  77 SE6       29.69F
FT INDIANTOWN  CLOUDY    54  53  97 E7        29.69F
CAPITAL CITY   CLOUDY    56  49  77 E7        29.68F
HARRISBURG     CLOUDY    56  49  77 E8        29.68F
YORK           CLOUDY    55  50  83 E7        29.68F
$$

PAZ038>040-043-044-047-048-054-055-060>062-067>071-042000-
EASTERN PENNSYLVANIA

CITY           SKY/WX    TMP DP  RH WIND       PRES   REMARKS
SCRANTON       LGT RAIN  51  48  89 E7        29.71F FOG
MOUNT POCONO   LGT RAIN  46  44  93 E7        29.71F VSB 1
ALLENTOWN      CLOUDY    52  48  87 NE7       29.72S
QUAKERTOWN*    CLOUDY    50  48  93 E5        29.73R
READING        PTSUNNY   53  49  86 E8        29.69F
LANCASTER      CLOUDY    54  51  90 E10       29.69S
COATESVILLE    CLOUDY    52  52 100 MISG      29.70F FOG
POTTSTOWN      LGT RAIN  51  50  96 NE6       29.72S FOG
BLUE BELL      CLOUDY    50  46  87 NE6       29.71R
DOYLESTOWN     CLOUDY    49  47  93 CALM      29.71F
WILLOW GROVE   NOT AVBL
NORTH PHILA    CLOUDY    52  47  83 E15       29.73S
PHILADELPHIA   CLOUDY    53  46  77 NE9       29.71S
$$



USA.gov is the U.S. government's official web portal to all federal, state and local government web resources and services.